Zurück zum Katalog

STARLINK-38044

AktivKommunikationSSO
NORAD 100115·PAYLOAD·🇺🇸 United States

Gestartet Jul 21, 2026 von Vandenberg Space Force Base

Loading…

Nächste Überflüge (nächste 24 Stunden)

TLE

AktuellSource: Space-Track

Epoche: Sep 14, 2026, 14:08 UTC

1 A0115U 26166Q   26257.58914946  .00194151  00000-0  12733-2 0  9995
2 A0115  97.2830 275.8114 0002393  62.5230 297.6278 15.75185848  8686

Verfolge STARLINK-38044 in Echtzeit mit AllMySat

Download on the App Store